Date String (YYYY-MM-DD hh:mm:ss) UTC,Instrument flags,absolute air pressure of the measurement (hPa),sample flow rate (lpm),inlet stack bypass flow (lpm),air temperature of the measurement (°C),ambient temperature measured by the external sensor (°C),aerosol sample conditioner tube jacket temperature (°C),OPC LED temperature (°C),internal box temperature (°C),relative humidity of the measurement (%),span deviation,mass concentration of particles derived from Lorenz-Mie calculation of OPC scattering (μg/m³),mass concentration of particles derived from Lorenz-Mie calculation of OPC scattering (μg/m³),mass concentration of particles derived from Lorenz-Mie calculation of OPC scattering (μg/m³)
DateTimeUTC,F1_M11,P_M11,Q1_M11,Q2_M11,T1_M11,T2_M11,T3_M11,T4_M11,T5_M11,U1_M11,ZSPAN_M11,X2_M11,X0_M11,X1_M11
2024-01-19 12:00:00,SystemResetWarning,0835.4,4.99,000.00,019.0,018.6,000.0,027.2,020.1,10.3,0001.1,0009.60,0012.85,0009.06
2024-01-19 12:01:00,SystemResetWarning,0835.4,5.00,000.00,018.9,018.3,000.0,027.2,020.0,10.3,0001.3,0009.56,0012.81,0009.03
2024-01-19 12:02:00,SystemResetWarning,0835.3,5.00,000.00,018.9,018.0,000.0,027.2,020.0,10.3,0001.6,0009.57,0012.82,0009.03
2024-01-19 12:03:00,SystemResetWarning,0835.2,5.00,000.00,018.9,017.7,000.0,027.3,020.0,10.3,0001.7,0009.59,0012.82,0009.06
2024-01-19 12:04:00,SystemResetWarning,0835.2,5.00,000.00,018.8,017.5,000.0,027.2,020.1,10.3,0001.6,0009.56,0012.72,0009.06
2024-01-19 12:05:00,SystemResetWarning,0835.2,5.01,000.00,018.9,018.1,000.0,027.2,020.5,10.2,0001.5,0009.57,0012.72,0009.05
2024-01-19 12:06:00,SystemResetWarning,0835.2,5.01,000.00,019.0,018.8,000.0,027.1,020.7,10.2,0001.7,0009.57,0012.69,0009.05
2024-01-19 12:07:00,SystemResetWarning,0835.3,4.99,000.00,019.0,018.7,000.0,027.2,020.1,10.2,0001.6,0009.55,0012.58,0009.05
2024-01-19 12:08:00,SystemResetWarning,0835.2,4.99,000.00,018.9,018.3,000.0,027.2,020.0,10.3,0001.4,0009.50,0012.49,0009.02
2024-01-19 12:09:00,SystemResetWarning,0835.3,5.01,000.00,018.9,018.0,000.0,027.2,020.0,10.3,0001.5,0009.50,0012.56,0009.00
2024-01-19 12:10:00,SystemResetWarning,0835.3,5.00,000.00,018.9,017.7,000.0,027.3,020.0,10.3,0001.5,0009.47,0012.62,0008.98
2024-01-19 12:11:00,SystemResetWarning,0835.3,4.99,000.00,018.8,017.5,000.0,027.3,020.0,10.3,0001.9,0009.41,0012.51,0008.94
2024-01-19 12:12:00,SystemResetWarning,0835.4,5.02,000.00,018.9,017.6,000.0,027.2,020.3,10.3,0001.9,0009.35,0012.42,0008.88
2024-01-19 12:13:00,SystemResetWarning,0835.4,5.00,000.00,019.0,018.5,000.0,027.2,020.7,10.2,0001.6,0009.30,0012.43,0008.81
2024-01-19 12:14:00,SystemResetWarning,0835.4,4.99,000.00,019.0,018.9,000.0,027.2,020.4,10.2,0001.5,0009.21,0012.42,0008.70
2024-01-19 12:15:00,SystemResetWarning,0835.3,4.99,000.00,019.0,018.6,000.0,027.2,020.0,10.3,0001.4,0009.10,0012.32,0008.58
2024-01-19 12:16:00,SystemResetWarning,0835.3,5.01,000.00,018.9,018.3,000.0,027.2,020.0,10.3,0001.7,0009.00,0012.18,0008.51
2024-01-19 12:17:00,SystemResetWarning,0835.4,5.00,000.00,018.9,017.9,000.0,027.2,020.0,10.3,0001.6,0008.94,0012.15,0008.46
2024-01-19 12:18:00,SystemResetWarning,0835.2,5.00,000.00,018.8,017.6,000.0,027.3,020.0,10.3,0001.6,0008.83,0011.97,0008.37
2024-01-19 12:19:00,SystemResetWarning,0835.2,5.00,000.00,018.8,017.5,000.0,027.3,020.1,10.3,0001.7,0008.81,0012.07,0008.32
2024-01-19 12:20:00,SystemResetWarning,0835.3,5.01,000.00,018.9,018.2,000.0,027.2,020.5,10.3,0001.6,0008.77,0011.96,0008.28
2024-01-19 12:21:00,SystemResetWarning,0835.4,5.00,000.00,019.0,018.9,000.0,027.2,020.8,10.3,0001.8,0008.76,0011.91,0008.25
2024-01-19 12:22:00,SystemResetWarning,0835.5,4.98,000.00,019.0,018.9,000.0,027.2,020.2,10.3,0001.6,0008.67,0011.77,0008.18
2024-01-19 12:23:00,SystemResetWarning,0835.5,5.00,000.00,019.0,018.6,000.0,027.2,020.0,10.3,0001.8,0008.65,0011.77,0008.16
2024-01-19 12:24:00,SystemResetWarning,0835.4,5.00,000.00,018.9,018.3,000.0,027.2,020.0,10.3,0002.1,0008.62,0011.65,0008.14
2024-01-19 12:25:00,SystemResetWarning,0835.3,4.99,000.00,018.9,018.0,000.0,027.3,020.0,10.4,0002.1,0008.54,0011.48,0008.08
2024-01-19 12:26:00,SystemResetWarning,0835.4,5.00,000.00,018.9,017.8,000.0,027.3,020.0,10.4,0001.9,0008.52,0011.40,0008.10
2024-01-19 12:27:00,SystemResetWarning,0835.4,5.01,000.00,018.8,017.6,000.0,027.3,020.0,10.4,0001.8,0008.49,0011.41,0008.07
2024-01-19 12:28:00,SystemResetWarning,0835.5,5.00,000.00,018.8,017.5,000.0,027.3,020.0,10.4,0001.5,0008.43,0011.30,0008.01
2024-01-19 12:29:00,SystemResetWarning,0835.5,5.01,000.00,018.9,017.7,000.0,027.2,020.3,10.5,0001.3,0008.42,0011.37,0008.00
2024-01-19 12:30:00,SystemResetWarning,0835.5,5.00,000.00,019.0,018.5,000.0,027.2,020.7,10.4,0001.1,0008.36,0011.21,0007.96
2024-01-19 12:31:00,SystemResetWarning,0835.5,4.99,000.00,019.1,018.9,000.0,027.2,020.5,10.4,0000.8,0008.31,0011.19,0007.91
2024-01-19 12:32:00,SystemResetWarning,0835.5,5.00,000.00,019.0,018.7,000.0,027.2,020.0,10.4,0000.5,0008.25,0011.37,0007.86
2024-01-19 12:33:00,SystemResetWarning,0835.5,5.00,000.00,018.9,018.3,000.0,027.2,020.0,10.5,0000.5,0008.26,0011.51,0007.85
2024-01-19 12:34:00,SystemResetWarning,0835.5,5.01,000.00,018.9,018.1,000.0,027.3,020.0,10.5,0000.6,0008.27,0011.51,0007.84
2024-01-19 12:35:00,SystemResetWarning,0835.5,5.00,000.00,018.9,017.8,000.0,027.3,020.0,10.5,0000.5,0008.21,0011.41,0007.82
2024-01-19 12:36:00,SystemResetWarning,0835.5,5.00,000.00,018.9,017.6,000.0,027.3,020.0,10.5,0000.3,0008.23,0011.37,0007.85
2024-01-19 12:37:00,SystemResetWarning,0835.5,5.00,000.00,018.8,017.5,000.0,027.3,020.1,10.4,0000.4,0008.23,0011.40,0007.83
2024-01-19 12:38:00,SystemResetWarning,0835.5,5.01,000.00,018.9,018.1,000.0,027.2,020.5,10.4,0000.4,0008.26,0011.45,0007.83
2024-01-19 12:39:00,SystemResetWarning,0835.6,5.01,000.00,019.0,018.8,000.0,027.2,020.8,10.4,0000.4,0008.25,0011.44,0007.82
2024-01-19 12:40:00,SystemResetWarning,0835.6,4.98,000.00,019.0,018.8,000.0,027.2,020.2,10.4,0000.5,0008.24,0011.40,0007.80
2024-01-19 12:41:00,SystemResetWarning,0835.5,5.00,000.00,018.9,018.5,000.0,027.2,020.0,10.4,0000.3,0008.27,0011.44,0007.82
2024-01-19 12:42:00,SystemResetWarning,0835.5,5.00,000.00,018.9,018.1,000.0,027.3,020.0,10.4,0001.0,0008.27,0011.35,0007.82
2024-01-19 12:43:00,SystemResetWarning,0835.6,5.00,000.00,018.9,017.8,000.0,027.3,020.0,10.5,0001.4,0008.24,0011.09,0007.82
2024-01-19 12:44:00,SystemResetWarning,0835.6,5.01,000.00,018.9,017.6,000.0,027.3,020.0,10.5,0001.6,0008.25,0010.90,0007.84
2024-01-19 12:45:00,SystemResetWarning,0835.6,5.01,000.00,018.9,017.7,000.0,027.2,020.3,10.5,0001.5,0008.19,0011.35,0007.80
2024-01-19 12:46:00,SystemResetWarning,0835.6,5.00,000.00,019.0,018.6,000.0,027.2,020.7,10.4,0001.3,0008.11,0011.37,0007.73
2024-01-19 12:47:00,SystemResetWarning,0835.5,4.99,000.00,019.1,019.0,000.0,027.2,020.6,10.4,0001.2,0008.04,0011.30,0007.66
2024-01-19 12:48:00,SystemResetWarning,0835.5,4.99,000.00,019.0,018.8,000.0,027.2,020.0,10.4,0001.0,0008.02,0011.32,0007.63
2024-01-19 12:49:00,SystemResetWarning,0835.5,5.01,000.00,019.0,018.4,000.0,027.2,020.0,10.4,0001.2,0007.94,0011.20,0007.57
2024-01-19 12:50:00,SystemResetWarning,0835.5,5.00,000.00,018.9,018.2,000.0,027.3,020.0,10.4,0001.6,0007.92,0011.17,0007.55
2024-01-19 12:51:00,SystemResetWarning,0835.6,5.00,000.00,018.9,017.9,000.0,027.3,020.0,10.4,0001.9,0007.90,0011.17,0007.53
2024-01-19 12:52:00,SystemResetWarning,0835.6,4.99,000.00,018.9,017.7,000.0,027.3,020.0,10.4,0001.9,0007.87,0011.10,0007.50
2024-01-19 12:53:00,SystemResetWarning,0835.6,5.01,000.00,018.9,017.4,000.0,027.3,020.0,10.5,0001.4,0007.89,0011.14,0007.50
2024-01-19 12:54:00,SystemResetWarning,0835.6,5.02,000.00,018.9,017.6,000.0,027.3,020.3,10.5,0001.2,0007.94,0011.27,0007.54
2024-01-19 12:55:00,SystemResetWarning,0835.6,4.99,000.00,019.0,018.4,000.0,027.2,020.7,10.5,0001.4,0007.94,0011.26,0007.55
2024-01-19 12:56:00,SystemResetWarning,0835.6,5.00,000.00,019.1,018.9,000.0,027.2,020.6,10.4,0000.9,0007.96,0010.92,0007.56
2024-01-19 12:57:00,SystemResetWarning,0835.5,4.99,000.00,019.0,018.6,000.0,027.2,020.0,10.5,0000.6,0007.97,0010.70,0007.56
2024-01-19 12:58:00,SystemResetWarning,0835.6,5.00,000.00,018.9,018.3,000.0,027.2,020.0,10.5,0000.8,0008.02,0010.79,0007.59
2024-01-19 12:59:00,SystemResetWarning,0835.5,5.00,000.00,018.9,018.0,000.0,027.3,020.0,10.5,0001.3,0008.06,0010.87,0007.62
